Weather History for Pampa, TX

Change the Weather History Date:

Thursday, February 28, 2013

  Actual Average Record
Temperature  
Mean Temperature 32 °F -  
Max Temperature 44 °F 57 °F 81 °F (1965)
Min Temperature 21 °F 30 °F 18 °F (1984)
Degree Days  
Heating Degree Days 32    
Moisture  
Dew Point 21 °F    
Average Humidity 67    
Maximum Humidity 93    
Minimum Humidity 34    
Precipitation  
Precipitation 0.00 in - - ()
Sea Level Pressure  
Sea Level Pressure 30.25 in    
Wind  
Wind Speed 8 mph (WNW)    
Max Wind Speed 17 mph    
Max Gust Speed 21 mph    
Visibility 10 miles    
Events      
Averages and records for this station are not official NWS values.
T = Trace of Precipitation, MM = Missing Value Source: NWS Daily Summary

Daily Weather History Graph

Daily Weather History Graph

Search for Another Location

Airport:

Trip Planner

Search our weather history database for the weather conditions in past years. The results will help you decide how hot, cold, wet, or windy it might be!

Date:

Astronomy

Feb. 28, 2013 Rise Set
Actual Time 7:14 AM CST 6:38 PM CST
Civil Twilight 6:49 AM CST 7:04 PM CST
Nautical Twilight 6:19 AM CST 7:33 PM CST
Astronomical Twilight 5:50 AM CST 8:03 PM CST
Moon 9:58 PM CST (2/28) 8:33 AM CST (2/28)
Length of Visible Light 12h 15m
Length of Day
11h 23m
Waning Gibbous, 90% of the Moon is Illuminated
Feb 28
Waning Gibbous
Mar 4
Last Quarter
Mar 11
New
Mar 19
First Quarter
Mar 27
Full

Hourly Weather History & Observations

Time (CST) Temp. Windchill Dew Point Humidity Pressure Visibility Wind Dir Wind Speed Gust Speed Precip Events Conditions
12:15 AM 28.4 °F 21.2 °F 23.0 °F 80% 30.24 in 10.0 mi WNW 6.9 mph - N/A   Clear
12:35 AM 26.6 °F 17.5 °F 23.0 °F 86% 30.25 in 10.0 mi WNW 9.2 mph - N/A   Clear
12:55 AM 26.6 °F 19.1 °F 23.0 °F 86% 30.24 in 10.0 mi WNW 6.9 mph - N/A   Clear
1:15 AM 26.6 °F 20.0 °F 21.2 °F 80% 30.25 in 10.0 mi WNW 5.8 mph - N/A   Clear
1:35 AM 23.0 °F 13.9 °F 21.2 °F 93% 30.26 in 10.0 mi West 8.1 mph - N/A   Clear
1:55 AM 23.0 °F 13.9 °F 19.4 °F 86% 30.26 in 10.0 mi West 8.1 mph - N/A   Clear
2:15 AM 23.0 °F 13.9 °F 19.4 °F 86% 30.26 in 10.0 mi West 8.1 mph - N/A   Scattered Clouds
2:35 AM 24.8 °F 19.1 °F 21.2 °F 86% 30.26 in 10.0 mi WNW 4.6 mph - N/A   Mostly Cloudy
2:55 AM 24.8 °F 16.9 °F 21.2 °F 86% 30.25 in 10.0 mi WNW 6.9 mph - N/A   Scattered Clouds
3:15 AM 23.0 °F 13.9 °F 19.4 °F 86% 30.25 in 10.0 mi West 8.1 mph - N/A   Clear
3:55 AM 23.0 °F 13.9 °F 19.4 °F 86% 30.24 in 10.0 mi West 8.1 mph - N/A   Clear
4:35 AM 23.0 °F 13.1 °F 19.4 °F 86% 30.24 in 10.0 mi West 9.2 mph - N/A   Clear
4:55 AM 23.0 °F 13.1 °F 19.4 °F 86% 30.24 in 10.0 mi West 9.2 mph - N/A   Clear
5:15 AM 23.0 °F 13.9 °F 19.4 °F 86% 30.24 in 10.0 mi WNW 8.1 mph - N/A   Clear
5:35 AM 24.8 °F 16.9 °F 19.4 °F 80% 30.25 in 10.0 mi West 6.9 mph - N/A   Clear
5:55 AM 23.0 °F 13.9 °F 17.6 °F 80% 30.26 in 10.0 mi West 8.1 mph - N/A   Clear
6:15 AM 23.0 °F 13.1 °F 17.6 °F 80% 30.26 in 10.0 mi WNW 9.2 mph - N/A   Clear
6:35 AM 23.0 °F 13.9 °F 17.6 °F 80% 30.27 in 10.0 mi WNW 8.1 mph - N/A   Clear
6:55 AM 23.0 °F 13.1 °F 17.6 °F 80% 30.27 in 10.0 mi West 9.2 mph - N/A   Clear
7:15 AM 21.2 °F 11.7 °F 17.6 °F 86% 30.27 in 10.0 mi West 8.1 mph - N/A   Clear
7:35 AM 23.0 °F 13.9 °F 17.6 °F 80% 30.27 in 10.0 mi WNW 8.1 mph - N/A   Clear
7:55 AM 23.0 °F 14.7 °F 19.4 °F 86% 30.28 in 10.0 mi WNW 6.9 mph - N/A   Clear
8:15 AM 24.8 °F 16.9 °F 19.4 °F 80% 30.28 in 10.0 mi WNW 6.9 mph - N/A   Clear
8:35 AM 26.6 °F 18.2 °F 21.2 °F 80% 30.29 in 10.0 mi WNW 8.1 mph - N/A   Clear
8:55 AM 28.4 °F 20.4 °F 23.0 °F 80% 30.30 in 10.0 mi WNW 8.1 mph - N/A   Clear
9:15 AM 28.4 °F 20.4 °F 21.2 °F 74% 30.30 in 10.0 mi WNW 8.1 mph - N/A   Clear
9:35 AM 30.2 °F 21.9 °F 21.2 °F 69% 30.30 in 10.0 mi WNW 9.2 mph - N/A   Clear
9:55 AM 32.0 °F 24.8 °F 23.0 °F 69% 30.30 in 10.0 mi WNW 8.1 mph - N/A   Clear
10:15 AM 32.0 °F 24.2 °F 23.0 °F 69% 30.30 in 10.0 mi WNW 9.2 mph - N/A   Clear
10:35 AM 33.8 °F 27.0 °F 23.0 °F 65% 30.30 in 10.0 mi WNW 8.1 mph - N/A   Clear
10:55 AM 33.8 °F 27.0 °F 23.0 °F 65% 30.30 in 10.0 mi NW 8.1 mph - N/A   Clear
11:15 AM 35.6 °F 29.2 °F 23.0 °F 60% 30.29 in 10.0 mi WNW 8.1 mph - N/A   Clear
11:35 AM 35.6 °F 29.9 °F 23.0 °F 60% 30.30 in 10.0 mi NW 6.9 mph - N/A   Clear
11:55 AM 37.4 °F 31.4 °F 23.0 °F 56% 30.30 in 10.0 mi NW 8.1 mph - N/A   Clear
12:15 PM 37.4 °F 30.8 °F 23.0 °F 56% 30.29 in 10.0 mi NNW 9.2 mph - N/A   Clear
12:35 PM 37.4 °F 30.8 °F 23.0 °F 56% 30.29 in 10.0 mi NW 9.2 mph - N/A   Clear
12:55 PM 39.2 °F 33.0 °F 21.2 °F 49% 30.28 in 10.0 mi NW 9.2 mph - N/A   Clear
1:15 PM 39.2 °F 32.5 °F 21.2 °F 49% 30.27 in 10.0 mi NW 10.4 mph - N/A   Clear
1:35 PM 41.0 °F 34.7 °F 21.2 °F 45% 30.25 in 10.0 mi WNW 10.4 mph - N/A   Clear
1:55 PM 41.0 °F 34.7 °F 21.2 °F 45% 30.24 in 10.0 mi WNW 10.4 mph - N/A   Clear
2:15 PM 41.0 °F 35.2 °F 21.2 °F 45% 30.24 in 10.0 mi WNW 9.2 mph - N/A   Clear
2:35 PM 42.8 °F 36.6 °F 21.2 °F 42% 30.23 in 10.0 mi WNW 11.5 mph - N/A   Clear
2:55 PM 42.8 °F 36.6 °F 21.2 °F 42% 30.23 in 10.0 mi WNW 11.5 mph 18.4 mph N/A   Clear
3:15 PM 42.8 °F 37.0 °F 19.4 °F 39% 30.22 in 10.0 mi WNW 10.4 mph - N/A   Clear
3:35 PM 42.8 °F 36.2 °F 19.4 °F 39% 30.22 in 10.0 mi NW 12.7 mph 20.7 mph N/A   Clear
3:55 PM 44.6 °F 38.4 °F 19.4 °F 37% 30.21 in 10.0 mi NW 12.7 mph - N/A   Clear
4:15 PM 44.6 °F 38.8 °F 17.6 °F 34% 30.21 in 10.0 mi NW 11.5 mph - N/A   Clear
4:35 PM 42.8 °F 34.8 °F 19.4 °F 39% 30.21 in 10.0 mi NNW 17.3 mph - N/A   Clear
4:55 PM 42.8 °F 36.2 °F 19.4 °F 39% 30.21 in 10.0 mi NW 12.7 mph - N/A   Clear
5:15 PM 42.8 °F 36.2 °F 19.4 °F 39% 30.21 in 10.0 mi NW 12.7 mph 17.3 mph N/A   Clear
5:55 PM 41.0 °F 35.8 °F 24.8 °F 53% 30.21 in 10.0 mi North 8.1 mph - N/A   Clear
6:15 PM 37.4 °F 31.4 °F 26.6 °F 65% 30.21 in 10.0 mi NNW 8.1 mph - N/A   Clear
6:35 PM 35.6 °F 29.9 °F 24.8 °F 65% 30.21 in 10.0 mi NNW 6.9 mph - N/A   Clear
6:55 PM 35.6 °F 29.2 °F 23.0 °F 60% 30.21 in 10.0 mi North 8.1 mph - N/A   Clear
7:15 PM 35.6 °F 30.7 °F 21.2 °F 56% 30.21 in 10.0 mi North 5.8 mph - N/A   Clear
7:35 PM 37.4 °F 32.8 °F 19.4 °F 48% 30.21 in 10.0 mi North 5.8 mph - N/A   Clear
7:55 PM 35.6 °F - 19.4 °F 52% 30.20 in 10.0 mi Calm Calm - N/A   Clear
8:15 PM 32.0 °F 25.6 °F 21.2 °F 64% 30.21 in 10.0 mi SW 6.9 mph - N/A   Clear
8:35 PM 30.2 °F 21.3 °F 23.0 °F 75% 30.21 in 10.0 mi SW 10.4 mph - N/A   Clear
8:55 PM 30.2 °F 21.9 °F 21.2 °F 69% 30.20 in 10.0 mi SSW 9.2 mph - N/A   Clear
9:15 PM 30.2 °F 22.6 °F 23.0 °F 75% 30.21 in 10.0 mi SW 8.1 mph - N/A   Clear
9:35 PM 30.2 °F 22.6 °F 23.0 °F 75% 30.21 in 10.0 mi SW 8.1 mph - N/A   Clear
9:55 PM 30.2 °F 21.3 °F 23.0 °F 75% 30.21 in 10.0 mi WSW 10.4 mph - N/A   Clear
10:15 PM 30.2 °F 22.6 °F 23.0 °F 75% 30.21 in 10.0 mi WSW 8.1 mph - N/A   Clear
10:35 PM 32.0 °F 24.8 °F 23.0 °F 69% 30.21 in 10.0 mi WSW 8.1 mph - N/A   Clear
10:55 PM 32.0 °F 25.6 °F 23.0 °F 69% 30.21 in 10.0 mi West 6.9 mph - N/A   Clear
11:15 PM 32.0 °F 25.6 °F 23.0 °F 69% 30.21 in 10.0 mi West 6.9 mph - N/A   Clear
11:35 PM 32.0 °F 26.4 °F 23.0 °F 69% 30.22 in 10.0 mi West 5.8 mph - N/A   Clear